Frankfort, MI

3:36 AM EDT on May 25, 2018 (GMT -0400)
Frankfort

Weather History for KFKS - November, 2012

Change the Weather History Date:

Friday, November 30, 2012

  Actual Average (KMBL) Record (KMBL)
Temperature  
Mean Temperature 32 °F -  
Max Temperature 34 °F 41 °F 64 °F (1998)
Min Temperature 31 °F 27 °F 8 °F (1976)
Degree Days  
Heating Degree Days 32    
Moisture  
Dew Point 28 °F    
Average Humidity 83    
Maximum Humidity 90    
Minimum Humidity 76    
Precipitation  
Precipitation 0.00 in - - ()
Sea Level Pressure  
Sea Level Pressure 30.22 in    
Wind  
Wind Speed 9 mph (ESE)    
Max Wind Speed 14 mph    
Max Gust Speed 21 mph    
Visibility 9 miles    
Events      
Averages and records for this station are not official NWS values.
T = Trace of Precipitation, MM = Missing Value Source: NWS Daily Summary

Daily Weather History Graph

Daily Weather History Graph

Search for Another Location

Airport or City:

Astronomy

Nov. 30, 2012 Rise Set
Actual Time 8:00 AM EST 5:06 PM EST
Civil Twilight 7:28 AM EST 5:38 PM EST
Nautical Twilight 6:51 AM EST 6:15 PM EST
Astronomical Twilight 6:16 AM EST 6:50 PM EST
Moon 7:01 PM EST (11/30) 9:32 AM EST (11/30)
Length of Visible Light 10h 10m
Length of Day
9h 05m
Waning Gibbous, 96% of the Moon is Illuminated
Nov 30
Waning Gibbous
Dec 6
Last Quarter
Dec 13
New
Dec 20
First Quarter
Dec 28
Full

Hourly Weather History & Observations

Time (EST) Temp. Windchill Dew Point Humidity Pressure Visibility Wind Dir Wind Speed Gust Speed Precip Events Conditions
12:15 AM 33.8 °F 27.0 °F 27.9 °F 79% 30.20 in 10.0 mi East 8.1 mph 16.1 mph N/A   Overcast
12:35 AM 33.3 °F 25.1 °F 27.5 °F 79% 30.20 in 10.0 mi East 10.4 mph 19.6 mph N/A   Overcast
12:55 AM 33.1 °F 26.9 °F 27.5 °F 80% 30.20 in 10.0 mi East 6.9 mph 16.1 mph N/A   Overcast
1:16 AM 32.9 °F 25.3 °F 27.5 °F 81% 30.21 in 10.0 mi East 9.2 mph - N/A   Overcast
1:36 AM 32.7 °F 25.0 °F 27.5 °F 81% 30.20 in 10.0 mi East 9.2 mph - N/A   Overcast
1:56 AM 32.4 °F 24.6 °F 27.3 °F 82% 30.20 in 10.0 mi East 9.2 mph 18.4 mph N/A   Overcast
2:16 AM 32.2 °F 24.4 °F 27.5 °F 83% 30.20 in 10.0 mi East 9.2 mph - N/A   Overcast
2:36 AM 32.2 °F 25.8 °F 27.5 °F 83% 30.20 in 10.0 mi East 6.9 mph - N/A   Overcast
2:56 AM 32.0 °F 23.6 °F 27.5 °F 83% 30.20 in 10.0 mi East 10.4 mph 17.3 mph N/A   Overcast
3:16 AM 32.2 °F 24.4 °F 27.5 °F 83% 30.21 in 10.0 mi East 9.2 mph - N/A   Overcast
3:36 AM 32.2 °F 25.0 °F 27.9 °F 84% 30.20 in 10.0 mi East 8.1 mph - N/A   Overcast
3:56 AM 32.2 °F 23.2 °F 27.9 °F 84% 30.20 in 10.0 mi East 11.5 mph 17.3 mph N/A   Overcast
4:12 AM 32.0 °F 24.2 °F 27.7 °F 84% 30.20 in 10.0 mi East 9.2 mph 16.1 mph N/A   Overcast
4:32 AM 32.0 °F 24.8 °F 27.5 °F 83% 30.20 in 10.0 mi East 8.1 mph 16.1 mph N/A   Overcast
4:52 AM 32.0 °F 23.0 °F 27.5 °F 83% 30.19 in 10.0 mi ESE 11.5 mph 16.1 mph N/A   Overcast
5:12 AM 32.0 °F 23.6 °F 27.5 °F 83% 30.19 in 10.0 mi East 10.4 mph - N/A   Overcast
5:32 AM 32.0 °F 24.8 °F 27.5 °F 83% 30.20 in 10.0 mi East 8.1 mph - N/A   Overcast
5:52 AM 32.0 °F 25.6 °F 27.5 °F 83% 30.19 in 10.0 mi East 6.9 mph - N/A   Overcast
6:12 AM 31.8 °F 25.4 °F 27.5 °F 84% 30.20 in 10.0 mi East 6.9 mph - N/A   Overcast
6:32 AM 32.0 °F 22.5 °F 27.5 °F 83% 30.19 in 10.0 mi East 12.7 mph 16.1 mph N/A   Overcast
6:53 AM 32.0 °F 25.6 °F 27.9 °F 85% 30.20 in 10.0 mi ESE 6.9 mph - N/A   Overcast
7:13 AM 32.0 °F 24.8 °F 27.9 °F 85% 30.20 in 10.0 mi East 8.1 mph - N/A   Overcast
7:33 AM 32.0 °F 24.8 °F 27.9 °F 85% 30.20 in 10.0 mi East 8.1 mph - N/A   Overcast
7:53 AM 31.8 °F 22.8 °F 27.5 °F 84% 30.20 in 10.0 mi ESE 11.5 mph - N/A   Overcast
8:13 AM 32.0 °F 24.2 °F 27.5 °F 83% 30.20 in 10.0 mi ESE 9.2 mph 16.1 mph N/A   Overcast
8:33 AM 32.0 °F 22.5 °F 27.5 °F 83% 30.21 in 10.0 mi East 12.7 mph 17.3 mph N/A   Overcast
8:53 AM 32.0 °F 23.0 °F 27.5 °F 83% 30.21 in 10.0 mi ESE 11.5 mph 16.1 mph N/A   Overcast
9:13 AM 32.0 °F 27.5 °F 27.5 °F 83% 30.23 in 10.0 mi ESE 4.6 mph - N/A   Overcast
9:34 AM 32.0 °F 24.8 °F 27.3 °F 83% 30.25 in 10.0 mi ESE 8.1 mph - N/A   Overcast
9:54 AM 32.0 °F 25.6 °F 27.1 °F 82% 30.25 in 10.0 mi East 6.9 mph - N/A   Overcast
10:14 AM 32.0 °F 28.7 °F 27.0 °F 82% 30.26 in 10.0 mi East 3.5 mph - N/A   Overcast
10:34 AM 32.0 °F 24.2 °F 26.8 °F 81% 30.26 in 7.0 mi East 9.2 mph 16.1 mph N/A   Overcast
10:54 AM 32.0 °F 24.8 °F 27.0 °F 82% 30.25 in 7.0 mi ESE 8.1 mph - N/A   Overcast
11:14 AM 32.0 °F 25.6 °F 26.6 °F 80% 30.24 in 10.0 mi East 6.9 mph 16.1 mph N/A   Overcast
11:34 AM 32.0 °F 24.8 °F 26.4 °F 80% 30.24 in 10.0 mi ESE 8.1 mph - N/A   Overcast
11:54 AM 32.2 °F 23.8 °F 26.2 °F 79% 30.23 in 10.0 mi ESE 10.4 mph 16.1 mph N/A   Overcast
12:15 PM 32.4 °F 24.0 °F 26.1 °F 78% 30.23 in 10.0 mi ESE 10.4 mph 16.1 mph N/A   Overcast
12:35 PM 32.5 °F 23.7 °F 26.1 °F 77% 30.21 in 10.0 mi ESE 11.5 mph 19.6 mph N/A   Overcast
12:55 PM 32.5 °F 24.2 °F 26.2 °F 78% 30.21 in 10.0 mi East 10.4 mph 17.3 mph N/A   Overcast
1:15 PM 32.9 °F 23.2 °F 26.4 °F 77% 30.20 in 10.0 mi ESE 13.8 mph 18.4 mph N/A   Overcast
1:35 PM 33.3 °F 25.1 °F 26.6 °F 77% 30.20 in 10.0 mi East 10.4 mph 16.1 mph N/A   Overcast
1:55 PM 33.4 °F 23.9 °F 26.6 °F 76% 30.20 in 10.0 mi East 13.8 mph 20.7 mph N/A   Overcast
2:15 PM 33.3 °F 25.7 °F 26.8 °F 77% 30.20 in 10.0 mi East 9.2 mph - N/A   Overcast
2:35 PM 33.4 °F 25.9 °F 27.1 °F 78% 30.20 in 10.0 mi East 9.2 mph - N/A   Overcast
2:56 PM 33.8 °F 25.8 °F 27.3 °F 77% 30.21 in 10.0 mi East 10.4 mph - N/A   Overcast
3:16 PM 33.6 °F 25.6 °F 27.5 °F 78% 30.19 in 10.0 mi ESE 10.4 mph 18.4 mph N/A   Overcast
3:36 PM 33.8 °F 27.0 °F 27.5 °F 78% 30.20 in 10.0 mi East 8.1 mph - N/A   Overcast
3:56 PM 33.8 °F 27.0 °F 27.9 °F 79% 30.20 in 10.0 mi ESE 8.1 mph 16.1 mph N/A   Overcast
4:16 PM 33.8 °F 24.8 °F 27.9 °F 79% 30.20 in 10.0 mi ESE 12.7 mph 18.4 mph N/A   Overcast
4:36 PM 33.6 °F 26.2 °F 28.0 °F 80% 30.20 in 10.0 mi ESE 9.2 mph 17.3 mph N/A   Overcast
4:56 PM 33.3 °F 25.7 °F 28.2 °F 82% 30.23 in 10.0 mi ESE 9.2 mph 17.3 mph N/A   Mostly Cloudy
5:16 PM 33.3 °F 26.4 °F 28.2 °F 82% 30.22 in 10.0 mi East 8.1 mph - N/A   Overcast
5:36 PM 33.1 °F 27.7 °F 28.4 °F 83% 30.23 in 10.0 mi ESE 5.8 mph - N/A   Mostly Cloudy
5:52 PM 33.3 °F 25.7 °F 28.6 °F 83% 30.24 in 10.0 mi East 9.2 mph - N/A   Mostly Cloudy
6:12 PM 33.4 °F 25.9 °F 28.9 °F 84% 30.25 in 10.0 mi ESE 9.2 mph - N/A   Overcast
6:32 PM 33.4 °F 27.3 °F 29.1 °F 84% 30.25 in 10.0 mi East 6.9 mph - N/A   Overcast
6:52 PM 33.4 °F 27.3 °F 29.3 °F 85% 30.25 in 10.0 mi East 6.9 mph - N/A   Overcast
7:12 PM 33.4 °F 28.1 °F 29.5 °F 85% 30.25 in 10.0 mi ESE 5.8 mph - N/A   Overcast
7:32 PM 33.4 °F 24.8 °F 29.8 °F 87% 30.25 in 7.0 mi ESE 11.5 mph - N/A   Overcast
8:12 PM 33.4 °F 26.6 °F 30.2 °F 88% 30.25 in 7.0 mi ESE 8.1 mph - N/A   Overcast
8:33 PM 33.4 °F 25.9 °F 30.6 °F 89% 30.24 in 7.0 mi ESE 9.2 mph - N/A   Overcast
8:53 PM 33.4 °F 27.3 °F 30.6 °F 89% 30.23 in 7.0 mi ESE 6.9 mph - N/A   Overcast
9:13 PM 33.8 °F 26.4 °F 30.9 °F 89% 30.23 in 7.0 mi ESE 9.2 mph - N/A   Overcast
9:33 PM 33.8 °F 28.6 °F 31.1 °F 90% 30.21 in 7.0 mi ESE 5.8 mph - N/A   Overcast
10:13 PM 34.2 °F 28.2 °F 31.5 °F 90% 30.22 in 7.0 mi East 6.9 mph - N/A   Overcast
10:33 PM 34.5 °F 27.9 °F 31.6 °F 89% 30.21 in 7.0 mi ESE 8.1 mph - N/A   Overcast
10:53 PM 34.7 °F 28.1 °F 31.6 °F 89% 30.22 in 7.0 mi ESE 8.1 mph - N/A   Overcast
11:14 PM 34.7 °F 27.5 °F 31.6 °F 89% 30.23 in 7.0 mi ESE 9.2 mph - N/A   Overcast
11:34 PM 34.7 °F 27.5 °F 31.6 °F 89% 30.22 in 7.0 mi ESE 9.2 mph - N/A   Overcast